• In Czech Republic
  • List of Countries
  • For 7 days
  • Water Temperature
  • Satellite Maps
  • Weather Map
  • Weather Widgets
  • user-avatar
    Login

    Hourly Weather Sidi Bu-l-Abbas

    Today, 14 December, Thursday

    Time Temperature Precipitation Wind Pressure Humidity
    00:00 +10°C° 0 mm 1 mps 726 mmHg 65%
    01:00 +10°C° 0 mm 1 mps 726 mmHg 66%
    02:00 +9°C° 0 mm 1 mps 726 mmHg 66%
    03:00 +8°C° 0 mm 2 mps 725 mmHg 66%
    04:00 +8°C° 0 mm 2 mps 725 mmHg 67%
    05:00 +8°C° 0 mm 2 mps 725 mmHg 69%
    06:00 +8°C° 0 mm 2 mps 725 mmHg 70%
    07:00 +9°C° 0 mm 2 mps 725 mmHg 64%
    08:00 +12°C° 0 mm 2 mps 725 mmHg 59%
    09:00 +13°C° 0 mm 2 mps 725 mmHg 54%
    10:00 +14°C° 0 mm 2 mps 725 mmHg 49%
    11:00 +16°C° 0 mm 2 mps 725 mmHg 44%
    12:00 +17°C° 0 mm 3 mps 725 mmHg 40%
    13:00 +17°C° 0 mm 3 mps 724 mmHg 39%
    14:00 +17°C° 0 mm 3 mps 724 mmHg 38%
    15:00 +18°C° 0 mm 3 mps 723 mmHg 36%
    16:00 +16°C° 0 mm 2 mps 723 mmHg 44%
    17:00 +14°C° 0 mm 2 mps 723 mmHg 51%
    18:00 +12°C° 0 mm 1 mps 722 mmHg 58%
    19:00 +12°C° 0 mm 1 mps 722 mmHg 57%
    20:00 +12°C° 0 mm 1 mps 722 mmHg 57%
    21:00 +12°C° 0 mm 1 mps 722 mmHg 56%
    22:00 +12°C° 0 mm 2 mps 722 mmHg 56%
    23:00 +12°C° 0 mm 2 mps 721 mmHg 55%

    Tomorrow, 15 December, Friday

    Time Temperature Precipitation Wind Pressure Humidity
    00:00 +10°C° 0 mm 2 mps 721 mmHg 54%
    01:00 +10°C° 0 mm 2 mps 721 mmHg 53%
    02:00 +10°C° 0 mm 2 mps 721 mmHg 51%
    03:00 +11°C° 0 mm 3 mps 720 mmHg 50%
    04:00 +10°C° 0 mm 3 mps 720 mmHg 51%
    05:00 +10°C° 0 mm 2 mps 720 mmHg 52%
    06:00 +9°C° 0 mm 2 mps 719 mmHg 53%
    07:00 +11°C° 0 mm 3 mps 720 mmHg 50%
    08:00 +12°C° 0 mm 3 mps 720 mmHg 47%
    09:00 +13°C° 0 mm 3 mps 720 mmHg 44%
    10:00 +14°C° 0 mm 4 mps 720 mmHg 43%
    11:00 +16°C° 0 mm 5 mps 720 mmHg 42%
    12:00 +17°C° 0 mm 6 mps 719 mmHg 41%
    13:00 +16°C° 0 mm 7 mps 719 mmHg 46%
    14:00 +16°C° 0 mm 7 mps 718 mmHg 51%
    15:00 +16°C° 0 mm 8 mps 717 mmHg 56%
    16:00 +14°C° 0 mm 7 mps 717 mmHg 62%
    17:00 +13°C° 0 mm 6 mps 717 mmHg 68%
    18:00 +12°C° 0 mm 5 mps 717 mmHg 74%
    19:00 +12°C° 0 mm 5 mps 718 mmHg 75%
    20:00 +12°C° 0 mm 5 mps 718 mmHg 77%
    21:00 +12°C° 0 mm 5 mps 718 mmHg 78%
    22:00 +12°C° 0 mm 5 mps 718 mmHg 76%
    23:00 +12°C° 0 mm 5 mps 718 mmHg 75%

    Day after tomorrow, 16 December, Saturday

    Time Temperature Precipitation Wind Pressure Humidity
    00:00 +12°C° 0 mm 4 mps 718 mmHg 73%
    01:00 +12°C° 0.5 mm 5 mps 718 mmHg 75%
    02:00 +12°C° 0.5 mm 5 mps 718 mmHg 77%
    03:00 +11°C° 0.5 mm 6 mps 718 mmHg 79%
    04:00 +12°C° 1.2 mm 5 mps 718 mmHg 80%
    05:00 +12°C° 1.2 mm 4 mps 718 mmHg 82%
    06:00 +12°C° 1.2 mm 4 mps 718 mmHg 84%
    07:00 +12°C° 0.7 mm 3 mps 719 mmHg 84%
    08:00 +12°C° 0.7 mm 3 mps 720 mmHg 84%
    09:00 +12°C° 0.7 mm 3 mps 720 mmHg 84%
    10:00 +12°C° 0.3 mm 3 mps 720 mmHg 84%
    11:00 +12°C° 0.3 mm 3 mps 721 mmHg 83%
    12:00 +13°C° 0.3 mm 2 mps 721 mmHg 82%
    13:00 +13°C° 0.1 mm 2 mps 721 mmHg 81%
    14:00 +13°C° 0.1 mm 2 mps 721 mmHg 80%
    15:00 +13°C° 0.1 mm 2 mps 720 mmHg 78%
    16:00 +13°C° 0 mm 2 mps 721 mmHg 80%
    17:00 +12°C° 0 mm 2 mps 721 mmHg 82%
    18:00 +12°C° 0 mm 1 mps 721 mmHg 84%
    19:00 +11°C° 0 mm 1 mps 722 mmHg 85%
    20:00 +11°C° 0 mm 1 mps 722 mmHg 85%
    21:00 +10°C° 0 mm 1 mps 722 mmHg 86%
    22:00 +9°C° 0 mm 2 mps 722 mmHg 86%
    23:00 +9°C° 0 mm 2 mps 723 mmHg 85%

    17 December, Sunday

    Time Temperature Precipitation Wind Pressure Humidity
    00:00 +9°C° 0 mm 2 mps 723 mmHg 85%
    01:00 +9°C° 0 mm 2 mps 723 mmHg 85%
    02:00 +9°C° 0 mm 2 mps 722 mmHg 85%
    03:00 +8°C° 0 mm 2 mps 722 mmHg 85%
    04:00 +8°C° 0 mm 2 mps 723 mmHg 85%
    05:00 +8°C° 0 mm 2 mps 723 mmHg 84%
    06:00 +8°C° 0 mm 2 mps 723 mmHg 84%
    07:00 +8°C° 0 mm 2 mps 724 mmHg 80%
    08:00 +9°C° 0 mm 3 mps 724 mmHg 75%
    09:00 +9°C° 0 mm 3 mps 725 mmHg 71%
    10:00 +10°C° 0 mm 3 mps 725 mmHg 63%
    11:00 +11°C° 0 mm 3 mps 725 mmHg 54%
    12:00 +12°C° 0 mm 3 mps 725 mmHg 46%
    13:00 +12°C° 0 mm 4 mps 725 mmHg 47%
    14:00 +12°C° 0 mm 4 mps 725 mmHg 47%
    15:00 +12°C° 0 mm 5 mps 725 mmHg 47%
    16:00 +11°C° 0 mm 4 mps 726 mmHg 55%
    17:00 +10°C° 0 mm 4 mps 726 mmHg 63%
    18:00 +9°C° 0 mm 3 mps 727 mmHg 70%
    19:00 +9°C° 0 mm 3 mps 728 mmHg 74%
    20:00 +8°C° 0 mm 2 mps 728 mmHg 78%
    21:00 +8°C° 0 mm 2 mps 729 mmHg 81%
    22:00 +8°C° 0 mm 2 mps 729 mmHg 83%
    23:00 +8°C° 0 mm 1 mps 729 mmHg 85%

    18 December, Monday

    Time Temperature Precipitation Wind Pressure Humidity
    00:00 +8°C° 0 mm 1 mps 729 mmHg 87%
    01:00 +7°C° 0 mm 1 mps 729 mmHg 87%
    02:00 +7°C° 0 mm 1 mps 729 mmHg 88%
    03:00 +7°C° 0 mm 1 mps 729 mmHg 89%
    04:00 +7°C° 0 mm 1 mps 729 mmHg 90%
    05:00 +6°C° 0 mm 1 mps 729 mmHg 90%
    06:00 +6°C° 0 mm 1 mps 729 mmHg 90%
    07:00 +7°C° 0 mm 1 mps 730 mmHg 84%
    08:00 +8°C° 0 mm 1 mps 730 mmHg 79%
    09:00 +9°C° 0 mm 1 mps 731 mmHg 73%
    10:00 +9°C° 0 mm 2 mps 731 mmHg 65%
    11:00 +12°C° 0 mm 2 mps 731 mmHg 58%
    12:00 +12°C° 0 mm 3 mps 731 mmHg 50%
    13:00 +12°C° 0 mm 3 mps 731 mmHg 48%
    14:00 +12°C° 0 mm 4 mps 730 mmHg 46%
    15:00 +12°C° 0 mm 4 mps 730 mmHg 43%
    16:00 +11°C° 0 mm 4 mps 730 mmHg 48%
    17:00 +10°C° 0 mm 4 mps 730 mmHg 53%
    18:00 +9°C° 0 mm 3 mps 730 mmHg 57%
    19:00 +8°C° 0 mm 3 mps 730 mmHg 60%
    20:00 +8°C° 0 mm 2 mps 731 mmHg 62%
    21:00 +7°C° 0 mm 2 mps 731 mmHg 64%
    22:00 +7°C° 0 mm 2 mps 731 mmHg 65%
    23:00 +7°C° 0 mm 2 mps 730 mmHg 66%

    19 December, Tuesday

    Time Temperature Precipitation Wind Pressure Humidity
    00:00 +7°C° 0 mm 1 mps 730 mmHg 67%
    01:00 +7°C° 0 mm 1 mps 730 mmHg 67%
    02:00 +7°C° 0 mm 1 mps 730 mmHg 67%
    03:00 +6°C° 0 mm 1 mps 730 mmHg 67%
    04:00 +6°C° 0 mm 1 mps 729 mmHg 66%
    05:00 +6°C° 0 mm 1 mps 729 mmHg 66%
    06:00 +6°C° 0 mm 1 mps 729 mmHg 65%
    07:00 +7°C° 0 mm 1 mps 730 mmHg 60%
    08:00 +9°C° 0 mm 1 mps 730 mmHg 54%
    09:00 +10°C° 0 mm 1 mps 730 mmHg 48%
    10:00 +11°C° 0 mm 1 mps 730 mmHg 43%
    11:00 +12°C° 0 mm 1 mps 730 mmHg 38%
    12:00 +13°C° 0 mm 1 mps 730 mmHg 33%
    13:00 +14°C° 0 mm 1 mps 730 mmHg 32%
    14:00 +14°C° 0 mm 1 mps 729 mmHg 31%
    15:00 +14°C° 0 mm 2 mps 729 mmHg 31%
    16:00 +13°C° 0 mm 1 mps 729 mmHg 36%
    17:00 +12°C° 0 mm 1 mps 729 mmHg 41%
    18:00 +10°C° 0 mm 1 mps 729 mmHg 47%
    19:00 +10°C° 0 mm 1 mps 729 mmHg 48%
    20:00 +10°C° 0 mm 1 mps 730 mmHg 49%
    21:00 +9°C° 0 mm 1 mps 730 mmHg 50%
    22:00 +9°C° 0 mm 1 mps 730 mmHg 49%
    23:00 +9°C° 0 mm 1 mps 730 mmHg 49%
    Show more